[[{"header":{"parameterUnit":"m.s-1","parameterCategory":1,"la1":30.2991,"la2":30.254,"lo1":-89.0895,"lo2":-89.0444,"dy":0.0017,"dx":0.0017,"nx":28,"ny":28,"refTime":"2025-03-26T09:00:00:Z","depth":0,"parameterNumber":2,"parameterNumberName":"U-component_of_WINDS"},"data":[0,0,0,0,0,0,0,0,0,0,0,0,0,0,0,0,0,0,0,0,0,0,0,0,0,0,0,0,0,0,0,0,0,0,0,0,0,0,0,0,0,0,0,0,0,0,0,0,0,0,0,0,0,0,0,0,0,0,-0.6249,-0.6248,0,-0.6201,-0.62,-0.62,-0.6155,-0.6155,-0.6154,-0.6154,-0.6108,-0.6107,-0.6107,0,0,0,0,0,0,0,0,0,0,0,0,0,-0.6304,-0.6303,-0.6249,-0.6248,-0.6247,-0.6201,-0.62,-0.62,-0.6156,-0.6155,-0.6154,-0.6154,-0.6108,-0.6108,-0.6107,0,0,0,0,0,0,0,0,0,0,0,0,0,-0.627,-0.6303,-0.6249,-0.622,-0.6217,-0.6201,-0.62,-0.62,-0.6156,-0.6155,-0.6154,-0.6153,-0.6109,-0.6108,-0.6107,-0.6117,0,0,-0.6103,-0.6103,0,0,0,0,0,0,0,0,-0.6272,-0.6269,-0.6225,-0.6222,-0.6218,-0.6183,-0.6203,-0.6172,-0.6156,-0.6179,-0.6154,-0.6153,-0.6134,-0.6131,-0.6124,-0.6115,-0.6113,-0.6103,-0.6103,-0.6102,-0.6102,0,0,0,0,0,0,0,-0.6275,-0.627,-0.623,-0.6224,-0.622,-0.621,-0.6204,-0.6197,-0.6162,-0.6177,-0.6174,-0.6168,-0.6132,-0.6125,-0.6122,-0.6112,-0.6103,-0.6102,-0.6102,-0.6101,-0.6109,-0.6109,0,0,0,0,0,0,-0.6281,-0.6273,-0.6231,-0.6228,-0.6244,-0.621,-0.6203,-0.6195,-0.6162,-0.6156,-0.6169,-0.6166,-0.6127,-0.6124,-0.6121,-0.613,-0.6102,-0.6101,-0.6101,-0.6108,-0.6109,-0.611,0,0,0,0,0,0,-0.6282,-0.6278,-0.6233,-0.6249,-0.6243,-0.6209,-0.6201,-0.6195,-0.6188,-0.6156,-0.615,-0.6168,-0.6126,-0.6122,-0.6118,-0.6128,-0.6101,-0.61,-0.6107,-0.6108,-0.6109,-0.615,0,0,0,0,0,0,-0.6284,-0.6279,-0.6282,-0.625,-0.6242,-0.6231,-0.6202,-0.6195,-0.6186,-0.6182,-0.6153,-0.6148,-0.6125,-0.612,-0.6117,-0.6126,-0.6099,-0.6106,-0.6107,-0.6109,-0.6148,-0.6152,-0.6157,0,0,0,0,0,-0.6286,-0.6296,-0.6282,-0.6277,-0.6245,-0.6231,-0.6227,-0.62,-0.6187,-0.619,-0.6169,-0.6149,-0.6127,-0.612,-0.6116,-0.6125,-0.6105,-0.6107,-0.6109,-0.6146,-0.6152,-0.6157,0,0,0,0,0,0,-0.6331,-0.6291,-0.6276,-0.6275,-0.6257,-0.6224,-0.6227,-0.6208,-0.6194,-0.6191,-0.6159,-0.6153,-0.6152,-0.6138,-0.613,-0.6133,-0.6113,-0.6115,-0.6143,-0.6148,-0.6152,-0.6156,-0.6098,0,0,0,0,0,-0.6341,-0.6332,-0.6298,-0.6301,-0.6292,-0.6261,-0.6254,-0.6235,-0.6215,-0.6208,-0.6187,-0.6169,-0.6159,-0.6152,-0.6141,-0.6145,-0.6138,-0.615,-0.6154,-0.6158,-0.616,-0.6161,-0.6165,-0.6116,-0.6116,-0.6116,0,0,-0.6361,-0.6338,-0.6335,-0.6309,-0.6293,-0.6285,-0.6255,-0.6248,-0.6243,-0.6207,-0.6201,-0.6185,-0.6164,-0.6164,-0.6163,-0.6152,-0.6172,-0.616,-0.6164,-0.6163,-0.6163,-0.6168,-0.6172,-0.6117,-0.6117,-0.6117,0,0,-0.6394,-0.6376,-0.6376,-0.6359,-0.6334,-0.6314,-0.6314,-0.6284,-0.6271,-0.6265,-0.6238,-0.6231,-0.6213,-0.6198,-0.6189,-0.6215,-0.6196,-0.6212,-0.6236,-0.6238,-0.6242,-0.6245,-0.6255,-0.6258,-0.6214,-0.6214,-0.6214,0,-0.6423,-0.6409,-0.6379,-0.6373,-0.6363,-0.6328,-0.6328,-0.6315,-0.6288,-0.6282,-0.627,-0.6246,-0.6229,-0.6225,-0.6231,-0.6225,-0.6224,-0.6216,-0.6243,-0.6246,-0.6249,-0.6258,-0.6262,-0.6216,-0.6216,-0.6216,-0.6215,0,-0.6446,-0.6437,-0.644,-0.6413,-0.6403,-0.6401,-0.637,-0.6364,-0.6345,-0.6326,-0.632,-0.6298,-0.6281,-0.6278,-0.6261,-0.6272,-0.6266,-0.6249,-0.6229,-0.6256,-0.6264,-0.6267,-0.6219,-0.6219,-0.6218,-0.6217,0,0,-0.6507,-0.6462,-0.6464,-0.6452,-0.6421,-0.6414,-0.641,-0.6392,-0.6387,-0.6369,-0.6366,-0.6351,-0.6334,-0.6324,-0.6304,-0.6305,-0.6327,-0.6288,-0.6287,-0.6296,-0.6338,-0.6352,-0.6356,-0.6314,-0.6314,-0.6315,-0.634,0,-0.6536,-0.6525,-0.6497,-0.6496,-0.6487,-0.6454,-0.645,-0.6431,-0.6413,-0.6403,-0.6383,-0.6373,-0.6353,-0.6346,-0.6345,-0.6325,-0.6335,-0.6322,-0.6311,-0.6311,-0.6318,-0.636,-0.6374,-0.64,-0.6343,-0.6344,-0.6344,0,-0.6568,-0.6551,-0.6548,-0.6517,-0.6512,-0.651,-0.6491,-0.6482,-0.646,-0.6446,-0.6433,-0.6411,-0.6405,-0.6386,-0.6378,-0.6369,-0.6363,-0.6352,-0.6352,-0.6351,-0.633,-0.636,-0.6407,-0.6411,-0.6348,-0.6348,-0.6348,0,-0.6614,-0.659,-0.6585,-0.6575,-0.6539,-0.6538,-0.6523,-0.6499,-0.649,-0.6474,-0.6468,-0.6452,-0.6443,-0.6431,-0.6405,-0.6393,-0.64,-0.6379,-0.639,-0.639,-0.6394,-0.6394,-0.644,-0.6388,-0.6388,-0.6388,-0.6388,0,-0.6649,-0.6649,-0.6605,-0.6602,-0.6601,-0.6568,-0.6568,-0.655,-0.653,-0.6523,-0.6494,-0.6489,-0.6454,-0.6445,-0.6425,-0.6421,-0.6418,-0.6407,-0.6402,-0.641,-0.6411,-0.6406,-0.6404,-0.6389,-0.6389,-0.6389,-0.6389,0,-0.67,-0.6671,-0.6663,-0.6629,-0.662,-0.6621,-0.6591,-0.6588,-0.6567,-0.6559,-0.6555,-0.6523,-0.6511,-0.6483,-0.6464,-0.645,-0.6452,-0.6442,-0.6459,-0.6456,-0.6469,-0.6468,-0.6514,-0.6519,-0.6464,-0.6464,-0.6465,0,-0.6725,-0.6724,-0.6688,-0.6681,-0.6667,-0.6656,-0.6646,-0.6614,-0.6605,-0.6579,-0.6579,-0.6564,-0.655,-0.6532,-0.6508,-0.6492,-0.6482,-0.6499,-0.648,-0.6488,-0.6483,-0.6484,-0.6483,-0.6504,-0.6505,-0.6505,-0.6506,0,-0.6772,-0.6757,-0.6744,-0.6724,-0.6713,-0.6697,-0.6679,-0.6675,-0.6639,-0.663,-0.6617,-0.6606,-0.6585,-0.6571,-0.6552,-0.6537,-0.6516,-0.6512,-0.6514,-0.6523,-0.6533,-0.6528,-0.6472,-0.6511,-0.6511,-0.651,-0.651,-0.651,-0.6812,-0.6809,-0.6783,-0.6768,-0.6751,-0.6735,-0.6729,-0.6707,-0.6695,-0.6674,-0.6656,-0.6644,-0.6622,-0.6594,-0.658,-0.6571,-0.656,-0.6563,-0.6564,-0.6565,-0.6569,-0.6533,-0.6567,-0.6567,-0.6567,-0.6567,-0.6567,0,-0.6858,-0.6839,-0.6826,-0.6801,-0.679,-0.6768,-0.6747,-0.674,-0.6729,-0.6709,-0.6696,-0.668,-0.6665,-0.6639,-0.6623,-0.662,-0.661,-0.6617,-0.6617,-0.6614,-0.6579,-0.6579,-0.6625,-0.6625,-0.6625,-0.6625,-0.6625,-0.6625,-0.688,-0.6874,-0.6856,-0.6841,-0.6823,-0.681,-0.68,-0.6785,-0.6768,-0.6751,-0.6739,-0.6721,-0.6699,-0.668,-0.6666,-0.6659,-0.6654,-0.6665,-0.6654,-0.6622,-0.6617,-0.6612,-0.6611,-0.6664,-0.6664,-0.669,-0.669,-0.6691]},{"header":{"parameterUnit":"m.s-1","parameterCategory":1,"la1":30.2991,"la2":30.254,"lo1":-89.0895,"lo2":-89.0444,"dy":0.0017,"dx":0.0017,"nx":28,"ny":28,"refTime":"2025-03-26T09:00:00:Z","depth":0,"parameterNumber":3,"parameterNumberName":"V-component_of_WINDS"},"data":[0,0,0,0,0,0,0,0,0,0,0,0,0,0,0,0,0,0,0,0,0,0,0,0,0,0,0,0,0,0,0,0,0,0,0,0,0,0,0,0,0,0,0,0,0,0,0,0,0,0,0,0,0,0,0,0,0,0,0.4304,0.4304,0,0.4333,0.4334,0.4334,0.4343,0.4342,0.4342,0.4342,0.4375,0.4376,0.4377,0,0,0,0,0,0,0,0,0,0,0,0,0,0.4258,0.4258,0.4304,0.4304,0.4305,0.4333,0.4334,0.4334,0.4343,0.4342,0.4342,0.4342,0.4375,0.4376,0.4377,0,0,0,0,0,0,0,0,0,0,0,0,0,0.4281,0.4259,0.4304,0.4312,0.4313,0.4333,0.4334,0.4334,0.4343,0.4342,0.4342,0.4342,0.4374,0.4376,0.4377,0.4392,0,0,0.4382,0.4383,0,0,0,0,0,0,0,0,0.428,0.4283,0.4311,0.4312,0.4313,0.4334,0.4329,0.4354,0.4343,0.4332,0.4342,0.4342,0.4362,0.4364,0.4371,0.4394,0.4395,0.4382,0.4383,0.4384,0.4384,0,0,0,0,0,0,0,0.4278,0.4282,0.4316,0.4311,0.4312,0.4315,0.4318,0.4334,0.4348,0.4333,0.4333,0.4336,0.4362,0.4369,0.4371,0.4395,0.4382,0.4384,0.4385,0.4385,0.4431,0.4432,0,0,0,0,0,0,0.4275,0.428,0.4315,0.4317,0.4295,0.4316,0.432,0.4328,0.4348,0.435,0.4337,0.4337,0.4366,0.437,0.4373,0.439,0.4384,0.4385,0.4386,0.4431,0.4432,0.4432,0,0,0,0,0,0,0.4274,0.4278,0.4314,0.4299,0.4303,0.4317,0.4326,0.4328,0.4335,0.4351,0.4353,0.4341,0.4366,0.437,0.4387,0.4392,0.4386,0.4387,0.4431,0.4431,0.4432,0.4427,0,0,0,0,0,0,0.4273,0.4277,0.4283,0.4299,0.4304,0.4326,0.4326,0.4329,0.4337,0.4338,0.4355,0.4358,0.4367,0.4384,0.4388,0.4394,0.4389,0.443,0.4431,0.4432,0.4426,0.4427,0.4427,0,0,0,0,0,0.4271,0.4281,0.4283,0.4287,0.4311,0.4327,0.433,0.4339,0.4337,0.4343,0.4353,0.4357,0.4391,0.4386,0.439,0.4396,0.443,0.4431,0.4431,0.4426,0.4427,0.4427,0,0,0,0,0,0,0.4266,0.4283,0.4286,0.4301,0.4312,0.4328,0.4335,0.4339,0.4352,0.4352,0.4363,0.4367,0.4383,0.4391,0.4386,0.4411,0.4411,0.4412,0.4405,0.4406,0.4406,0.4404,0.439,0,0,0,0,0,0.4267,0.4277,0.4292,0.4304,0.431,0.4321,0.4329,0.4334,0.4347,0.4352,0.4364,0.4376,0.439,0.4398,0.4411,0.4428,0.4432,0.4434,0.4435,0.4435,0.4436,0.4445,0.4446,0.4434,0.4434,0.4434,0,0,0.4268,0.4279,0.4285,0.4303,0.4313,0.4324,0.4326,0.4338,0.4346,0.4354,0.437,0.4379,0.4394,0.441,0.4418,0.4418,0.444,0.4436,0.4436,0.4437,0.4446,0.4447,0.4448,0.4434,0.4434,0.4434,0,0,0.4277,0.4286,0.4297,0.4306,0.432,0.4327,0.433,0.4345,0.4351,0.4367,0.4373,0.4384,0.4406,0.4417,0.4425,0.4437,0.4441,0.4441,0.4443,0.4451,0.4452,0.4453,0.4457,0.4458,0.4442,0.4442,0.4442,0,0.4277,0.4294,0.4302,0.4313,0.4321,0.4328,0.4339,0.4348,0.4366,0.4371,0.4371,0.4399,0.441,0.4428,0.4431,0.4437,0.4441,0.4439,0.4451,0.4452,0.4453,0.4457,0.4459,0.4442,0.4442,0.4442,0.4442,0,0.4294,0.4305,0.4312,0.4328,0.4337,0.4348,0.4358,0.4366,0.4371,0.4379,0.4395,0.4408,0.4424,0.4429,0.4434,0.4448,0.4447,0.4449,0.4448,0.4454,0.4458,0.4459,0.4442,0.4442,0.4442,0.4442,0,0,0.43,0.4319,0.4322,0.4329,0.4344,0.4354,0.4366,0.438,0.4386,0.4398,0.4409,0.4427,0.4429,0.4438,0.4445,0.4452,0.446,0.4453,0.4454,0.4453,0.4476,0.4474,0.4475,0.4463,0.4463,0.4464,0.4474,0,0.431,0.433,0.4338,0.4355,0.4365,0.4371,0.4382,0.4393,0.44,0.4411,0.442,0.4433,0.4434,0.444,0.4447,0.4457,0.4465,0.4457,0.4473,0.4474,0.4469,0.4477,0.4476,0.4485,0.4476,0.4476,0.4476,0,0.4325,0.4336,0.4353,0.4366,0.4371,0.438,0.4393,0.4403,0.4416,0.4421,0.4431,0.4437,0.445,0.4449,0.4467,0.4462,0.4469,0.4475,0.4475,0.4477,0.4475,0.4479,0.4489,0.449,0.4479,0.4479,0.4478,0,0.4327,0.4346,0.4359,0.4365,0.4381,0.4387,0.4394,0.4407,0.4414,0.4426,0.4432,0.4445,0.4453,0.4464,0.4474,0.4472,0.4491,0.449,0.4496,0.4496,0.45,0.4499,0.451,0.4505,0.4505,0.4505,0.4505,0,0.4337,0.4348,0.436,0.4368,0.4379,0.4388,0.44,0.4408,0.4419,0.4429,0.4435,0.4445,0.4457,0.4468,0.4476,0.449,0.4494,0.4498,0.45,0.4498,0.4497,0.4502,0.4502,0.4505,0.4505,0.4505,0.4505,0,0.4342,0.435,0.4365,0.4378,0.4382,0.439,0.4402,0.4411,0.4418,0.4431,0.4434,0.4447,0.446,0.4471,0.4489,0.4494,0.4509,0.4511,0.4504,0.4505,0.451,0.4509,0.4524,0.4526,0.452,0.452,0.452,0,0.4348,0.4355,0.437,0.4376,0.4383,0.4394,0.4401,0.441,0.4418,0.4433,0.4439,0.4453,0.4464,0.4485,0.4497,0.451,0.4513,0.4517,0.4515,0.4512,0.4513,0.4512,0.4513,0.4518,0.4518,0.4518,0.4518,0,0.4357,0.436,0.4371,0.4382,0.4391,0.4401,0.4411,0.4416,0.4427,0.4436,0.4449,0.4457,0.4475,0.4489,0.4503,0.4512,0.4517,0.4518,0.452,0.4517,0.4513,0.4515,0.4504,0.4518,0.4518,0.4518,0.4518,0.4518,0.4362,0.4369,0.438,0.4391,0.4399,0.4408,0.4416,0.4425,0.4435,0.4449,0.4455,0.4468,0.4481,0.45,0.4509,0.452,0.4521,0.4523,0.4524,0.4525,0.4524,0.4511,0.4523,0.4523,0.4523,0.4523,0.4523,0,0.4371,0.4378,0.4388,0.4401,0.441,0.4413,0.4424,0.4432,0.4443,0.4454,0.4464,0.4479,0.4492,0.4504,0.4518,0.4525,0.4527,0.4528,0.4527,0.4529,0.4523,0.452,0.4525,0.4525,0.4525,0.4525,0.4525,0.4525,0.4377,0.4388,0.4393,0.4409,0.4417,0.4429,0.4435,0.4444,0.4452,0.4468,0.4479,0.4486,0.4497,0.4512,0.4524,0.4527,0.4532,0.4532,0.4536,0.453,0.453,0.4529,0.4526,0.4533,0.4533,0.4541,0.4541,0.4541]}]]